Theta_e
314 322 327 331 334 329 334 339 339 339 339 332 331 331 331 331 332 334 326 327 328 325 323 324 327 327 322 322 319 317 318 319 316 314 313 312 312 312 315 316 315 315 317 315 317 317 318 321 315
321 325 330 334 331 334 337 340 339 337 335 333 332 331 329 331 329 328 332 326 325 325 322 323 323 324 322 321 318 318 319 317 316 315 314 313 313 314 320 323 323 318 318 313 315 317 320 322 323
323 329 333 335 339 340 339 338 337 335 333 332 331 328 329 330 328 329 332 326 325 324 322 320 322 322 321 319 319 320 319 318 318 317 316 314 314 319 324 325 326 325 325 320 317 314 327 325 326
325 330 332 336 336 338 340 337 336 335 333 331 330 332 328 328 329 329 329 326 325 324 323 321 324 321 320 320 320 320 320 319 319 320 318 315 317 325 329 327 326 328 328 323 328 324 324 327 328
328 331 332 332 332 334 338 337 335 335 333 331 329 331 330 329 326 325 325 326 325 329 325 321 321 321 320 321 321 321 321 320 321 321 320 316 321 331 329 325 325 324 325 326 327 325 327 328 324
330 330 332 332 331 333 334 332 332 333 333 330 328 329 330 327 326 328 331 334 332 332 323 326 319 320 320 321 322 322 322 320 321 321 321 317 322 325 325 323 324 323 324 326 329 326 323 324 323
330 331 329 330 331 332 332 331 332 333 332 331 330 330 329 330 328 326 330 333 333 333 325 320 318 320 321 322 323 323 323 321 321 321 322 320 323 322 322 322 322 322 324 324 328 329 328 327 326
328 330 330 330 331 330 330 331 332 332 332 330 328 332 331 331 329 329 332 332 333 334 332 324 320 319 321 323 324 325 324 321 322 322 322 320 322 323 324 324 323 323 321 322 320 321 323 323 325
328 330 330 330 330 330 330 331 330 330 330 330 330 330 330 329 329 331 332 332 333 333 334 333 334 334 327 332 331 325 325 321 322 322 324 319 327 331 331 330 327 324 322 321 319 318 319 323 325
330 331 330 330 330 330 330 330 330 330 330 329 329 330 330 331 331 331 330 331 332 332 333 334 335 336 337 335 337 334 335 332 334 335 332 332 332 332 331 329 327 324 322 321 317 316 317 320 325
330 332 331 331 330 329 329 329 329 329 331 329 329 329 329 330 330 332 331 330 330 332 333 333 330 332 331 336 337 337 334 334 333 329 323 332 331 332 332 331 331 331 328 326 327 327 326 326 326
331 330 330 330 330 330 331 330 330 330 330 329 328 328 328 328 329 330 331 331 330 330 332 334 334 322 328 336 336 334 330 330 330 329 325 326 332 333 332 332 330 328 329 328 326 326 327 327 327
330 330 330 330 330 330 330 330 330 330 328 328 327 326 326 326 326 327 329 331 331 329 331 334 335 322 323 325 333 328 326 329 328 329 329 326 331 332 332 332 331 330 329 328 327 326 327 327 327
326 327 328 329 330 330 330 330 329 329 327 326 325 324 324 324 323 324 326 329 331 328 331 333 334 324 322 323 324 323 322 327 327 329 330 327 329 331 332 330 329 330 329 329 328 327 327 327 327
324 327 327 328 328 329 329 330 329 326 324 324 323 324 324 322 323 324 325 328 332 331 330 330 327 324 323 323 323 323 326 323 329 329 329 326 328 330 329 328 328 327 328 327 326 326 327 328 328
324 326 327 327 327 326 326 328 327 325 325 324 324 324 323 322 324 325 327 329 331 330 327 326 327 324 323 323 323 323 328 326 329 331 332 331 329 328 328 327 326 327 329 327 326 326 326 326 327
324 326 327 327 326 325 324 326 327 324 324 324 324 325 323 323 325 326 328 330 330 329 326 325 324 325 323 323 323 322 325 322 330 331 332 332 330 329 328 328 328 328 330 328 329 327 325 327 326
326 326 326 328 327 323 324 325 326 324 324 325 325 325 324 324 325 327 328 329 328 325 324 323 324 324 323 323 322 327 330 330 331 331 331 332 330 329 328 327 329 330 328 325 326 326 326 327 325
325 327 328 327 326 326 326 326 326 325 326 327 326 325 324 326 326 328 328 324 325 323 324 325 324 326 325 324 329 330 330 331 331 331 332 331 329 330 331 329 329 330 326 325 327 323 324 326 324
323 325 327 327 326 327 325 326 328 328 328 327 325 325 326 327 329 329 329 325 324 325 326 326 330 323 323 330 330 331 332 330 331 332 333 330 329 329 326 326 330 326 326 325 323 325 326 325 323
321 323 325 325 325 325 324 325 327 328 327 326 325 324 323 327 329 331 330 329 329 329 327 327 328 322 324 331 330 323 327 328 331 332 332 332 328 328 325 326 327 327 324 324 325 325 326 324 324
321 321 320 321 322 324 324 329 328 328 328 328 326 324 325 329 330 332 331 331 330 331 331 332 328 323 324 321 330 332 330 330 332 331 331 330 328 329 328 327 325 325 325 324 326 326 325 325 327
319 319 320 320 322 323 323 325 328 328 328 328 327 325 327 330 331 332 331 331 331 331 332 332 325 327 326 321 331 331 329 332 331 331 330 330 329 328 328 325 325 324 325 325 327 327 326 326 325
318 319 320 321 322 325 324 326 328 329 329 329 328 324 329 331 331 331 331 330 331 331 331 331 331 332 325 329 331 326 332 331 331 332 331 329 330 328 328 328 324 325 326 327 327 326 325 325 325
318 320 323 325 327 327 326 328 329 328 327 326 326 327 331 331 331 331 330 331 331 331 331 332 332 332 332 332 331 329 330 329 331 331 331 329 328 329 329 327 325 325 326 327 327 325 326 324 326
319 322 322 325 329 329 327 328 329 326 326 325 324 324 330 331 331 331 330 331 330 330 331 331 332 331 331 331 331 328 328 331 331 330 331 328 328 327 327 327 326 326 327 327 327 326 325 326 325
319 323 322 327 328 326 330 328 325 325 326 325 327 324 329 331 331 330 331 330 330 331 332 332 331 330 331 331 330 330 332 331 330 329 328 328 328 329 329 328 328 328 327 327 326 327 327 328 325
320 321 324 324 328 328 326 326 326 326 327 326 328 329 330 332 331 330 330 330 330 331 332 331 329 330 330 331 331 332 332 332 329 331 331 329 328 330 330 330 329 328 328 327 326 327 326 323 327
319 322 322 324 324 327 328 325 324 327 326 328 331 331 333 332 330 330 330 330 331 331 331 329 329 330 331 330 332 333 332 331 330 330 331 329 329 331 330 330 330 329 328 328 326 327 328 328 327
319 320 322 323 324 324 325 323 326 328 330 330 331 331 332 331 330 330 329 330 330 331 330 328 328 329 330 330 332 333 332 331 330 331 331 330 330 330 330 330 330 330 330 327 328 328 328 329 329
Wind_Speed
12 13 10 4 6 5 9 7 4 7 7 1 3 7 5 10 6 6 1 7 13 12 10 13 16 17 15 12 9 8 7 5 6 7 8 9 10 11 11 10 10 11 11 11 11 11 11 11 9
14 13 5 4 7 10 11 6 10 2 3 5 7 10 10 12 8 7 4 9 13 12 10 12 15 16 16 13 10 9 8 4 5 7 8 10 11 12 11 11 11 10 9 11 12 12 11 11 10
14 8 8 5 9 10 4 10 4 2 3 4 4 5 3 4 4 4 6 10 13 14 12 13 15 16 16 14 12 11 8 6 6 7 9 11 11 13 13 13 13 14 14 13 12 13 11 10 10
10 6 7 9 12 9 8 7 2 6 5 3 3 6 4 6 2 4 7 12 13 14 14 14 19 17 17 15 13 11 10 9 9 10 11 12 11 11 13 15 16 16 17 15 14 13 12 12 12
10 8 10 12 14 11 8 12 7 9 3 4 3 3 4 2 5 11 8 12 15 16 16 16 19 19 18 17 16 16 14 12 11 12 12 13 11 11 15 17 18 19 20 18 16 16 15 15 15
13 9 10 12 15 9 11 12 11 13 8 3 5 6 4 5 8 5 7 14 13 16 16 17 18 19 19 18 19 18 18 16 15 14 13 14 12 14 17 17 18 18 19 21 20 18 18 19 19
18 9 14 15 13 11 13 8 11 14 7 5 5 8 2 3 8 12 8 13 16 16 19 18 17 20 20 21 21 21 21 19 17 16 15 15 13 14 16 16 17 17 19 20 21 20 19 20 20
15 10 17 13 14 14 4 9 5 8 5 4 5 7 5 9 14 13 8 12 17 19 20 21 19 20 22 26 27 25 22 19 18 17 17 17 16 16 17 17 17 18 18 20 22 23 23 23 22
14 11 13 19 14 12 6 9 3 3 11 12 13 15 11 10 13 12 11 13 18 21 22 23 21 21 22 23 24 26 24 21 20 19 18 18 15 14 15 16 19 19 21 20 20 20 21 23 24
16 15 21 20 14 14 9 10 9 11 13 19 20 15 13 13 16 17 15 16 20 24 24 24 24 23 21 20 20 21 19 17 16 14 14 14 13 15 16 18 22 19 19 19 18 18 17 17 14
24 23 19 24 22 15 17 21 19 19 15 23 21 19 22 23 23 22 20 19 20 25 24 25 28 27 24 20 19 17 16 15 15 18 16 14 14 14 14 14 14 14 15 13 13 12 12 12 16
28 30 30 28 30 23 20 26 24 22 23 30 29 23 28 30 25 25 25 24 23 21 26 27 28 32 28 21 21 18 17 15 15 13 16 16 14 14 15 15 15 16 14 13 12 12 13 15 15
31 27 29 32 33 26 26 28 32 32 29 31 30 27 27 29 31 32 29 27 24 21 24 28 28 32 32 30 21 22 19 16 14 13 14 17 14 15 15 16 16 16 15 14 13 13 14 12 13
31 35 34 33 32 28 24 30 33 32 31 32 30 29 28 29 31 33 33 30 26 21 23 26 30 32 33 30 30 25 23 17 16 13 13 17 15 15 15 17 17 17 17 18 16 14 13 13 13
31 26 25 25 30 27 28 27 28 28 32 30 27 26 29 31 32 30 29 29 26 21 20 29 29 32 33 30 29 25 20 21 13 13 16 17 16 15 17 18 19 19 19 19 17 15 15 14 13
21 25 24 24 23 28 20 31 23 25 27 25 24 27 31 33 31 29 26 25 24 22 25 26 25 31 34 31 28 23 19 17 13 13 13 14 15 16 17 19 20 20 21 18 19 15 14 14 13
24 24 30 25 23 20 19 30 21 21 22 19 25 29 30 30 29 25 22 22 21 22 25 23 23 30 31 30 25 23 20 17 12 12 12 14 14 16 16 17 18 18 20 18 16 14 15 13 14
23 26 27 27 21 16 26 29 20 23 27 26 27 29 32 31 28 23 22 20 18 20 19 16 22 27 28 26 24 18 14 12 12 11 12 14 14 15 14 17 18 18 18 17 17 14 13 13 13
26 29 26 23 18 22 24 25 23 21 25 29 30 30 32 28 24 19 19 16 14 13 14 17 23 27 25 22 18 14 12 10 9 10 12 13 13 13 15 17 15 16 17 15 14 14 15 13 14
29 30 29 25 22 24 21 27 26 23 24 29 29 26 27 22 18 15 14 10 10 10 14 18 22 24 25 18 14 11 10 8 9 9 11 11 11 12 11 11 11 11 10 12 14 12 10 12 14
32 31 27 30 21 22 22 27 29 25 31 24 22 28 31 22 19 12 7 7 9 12 15 19 22 25 22 15 13 11 8 8 7 8 7 8 8 8 7 7 8 10 11 11 10 9 11 11 14
33 27 26 25 22 24 22 25 25 21 19 21 27 27 21 15 10 7 8 9 11 13 17 21 23 24 20 16 10 9 7 7 7 7 8 8 7 7 7 7 8 8 8 7 7 8 10 10 13
33 20 23 22 21 25 29 20 22 21 22 24 18 25 17 8 7 8 9 11 15 19 21 21 23 19 15 13 8 5 5 5 4 5 8 9 9 8 8 8 7 6 7 7 9 9 8 8 11
21 17 19 19 17 21 24 23 22 20 27 25 18 21 13 9 8 11 12 16 21 21 21 20 19 15 13 10 8 6 6 5 4 6 8 8 6 7 8 8 6 7 7 9 9 9 8 7 9
25 21 10 12 14 19 19 17 18 16 13 13 10 11 11 10 12 15 19 21 24 24 21 19 16 13 12 9 6 6 6 5 4 5 7 5 5 5 8 8 7 7 8 9 10 9 8 9 9
31 26 13 17 15 16 18 12 16 13 21 29 27 15 9 12 14 18 21 23 24 23 20 17 15 13 11 9 6 6 4 3 3 4 3 3 3 4 7 7 7 7 8 10 10 9 6 6 8
26 27 25 13 12 8 14 17 15 19 21 15 14 19 14 14 16 21 24 24 24 22 20 16 14 12 11 8 7 5 3 2 3 2 1 1 2 2 6 7 6 6 9 10 11 8 7 7 9
25 24 21 16 19 16 12 12 10 7 11 13 14 15 18 16 20 24 25 25 23 21 18 15 13 12 12 8 7 4 2 2 2 2 2 2 3 5 8 8 7 8 9 10 10 8 8 10 9
21 21 21 17 13 16 11 8 9 13 9 11 13 17 18 20 23 26 25 24 22 20 17 15 14 13 12 9 7 5 1 1 3 3 3 3 4 6 9 8 8 10 10 10 9 8 9 8 8
28 22 27 13 21 12 10 5 2 6 1 10 11 13 18 22 25 26 26 25 23 21 18 16 14 13 12 10 7 5 2 1 4 4 3 2 5 5 10 9 7 8 10 10 9 8 8 7 7
Wind_Direction
159 152 146 185 230 241 239 201 264 211 206 225 280 240 257 286 308 337 131 186 175 181 187 190 200 204 205 207 212 208 224 252 289 293 293 292 287 279 275 264 252 238 251 269 267 266 269 277 258
164 153 179 211 252 221 199 188 200 180 342 287 256 252 249 266 272 271 237 207 181 185 182 192 189 197 205 209 199 207 223 245 279 292 302 299 288 279 268 266 273 247 261 267 271 270 260 265 272
164 180 237 230 236 251 222 178 147 216 255 255 238 255 291 257 237 251 243 206 191 187 188 193 189 191 203 204 205 213 223 249 280 300 310 306 289 272 262 267 276 263 274 285 268 264 271 265 271
167 198 241 245 236 239 265 165 170 260 180 228 279 250 225 256 259 223 241 215 204 194 195 199 196 194 200 208 213 219 233 256 280 298 310 310 294 272 265 268 271 270 268 273 269 269 258 260 269
195 233 244 238 249 252 234 263 283 258 255 252 218 254 274 320 275 277 255 222 211 196 197 206 198 201 205 213 220 227 235 249 267 284 303 310 296 272 271 272 269 266 261 267 263 264 255 258 258
201 253 240 243 241 224 247 256 252 245 227 208 217 264 245 355 356 320 258 217 209 203 205 206 205 208 215 222 226 233 238 245 259 270 288 301 287 274 269 269 267 269 265 262 256 258 254 253 253
246 215 250 265 273 256 254 265 233 231 226 198 309 258 265 6 349 337 310 229 217 212 214 214 213 213 219 225 232 236 241 246 258 269 282 294 285 277 270 268 270 270 263 260 259 256 252 250 252
228 257 255 252 258 259 236 210 215 224 252 309 265 260 271 334 327 320 290 249 224 218 218 218 218 219 221 226 229 236 243 249 261 270 281 291 286 274 267 266 278 274 269 269 263 258 255 254 255
218 235 246 248 255 257 191 234 190 252 277 288 269 274 286 294 310 312 290 256 238 223 221 220 217 215 219 221 231 234 240 248 257 265 279 282 271 264 269 270 260 268 273 270 266 260 253 247 249
211 229 234 248 261 267 285 263 283 271 268 276 276 260 271 294 299 293 285 273 248 238 227 220 217 214 212 213 219 234 234 243 253 257 261 268 262 259 252 250 264 274 273 274 271 262 254 251 248
223 238 240 247 249 261 284 277 280 275 270 274 294 297 284 286 287 284 277 279 264 251 237 227 224 221 217 213 215 219 226 238 247 261 268 262 261 260 265 263 267 281 280 272 278 273 271 251 241
239 240 244 255 254 251 266 281 282 269 276 280 290 289 290 292 286 281 275 276 276 257 236 226 222 224 224 212 216 219 224 236 249 258 273 271 261 261 254 253 252 259 255 256 258 253 248 244 245
244 248 255 251 265 264 262 268 269 274 280 277 285 290 284 283 282 278 272 270 273 254 231 225 220 224 228 222 219 221 230 241 247 255 266 269 253 255 256 254 248 250 250 249 252 252 250 253 255
249 250 250 257 253 258 258 265 270 271 275 280 283 286 285 286 282 276 269 267 267 265 229 222 225 224 229 228 228 234 240 240 253 255 259 267 257 255 254 257 254 251 249 248 241 247 246 251 248
256 257 257 247 253 255 261 262 260 266 270 274 283 286 288 288 283 276 270 262 267 261 235 230 229 226 228 225 229 232 233 245 245 256 263 267 262 258 256 259 258 255 250 245 247 241 245 244 248
241 239 247 233 227 240 242 261 263 269 269 278 278 289 294 289 282 277 266 269 265 259 254 242 227 226 223 221 224 227 230 245 246 255 256 262 259 259 262 263 263 262 251 245 247 237 239 238 238
225 234 230 242 232 243 222 259 256 263 270 272 286 293 294 288 284 278 275 269 264 257 243 241 222 218 218 217 217 223 234 247 248 252 256 262 258 260 264 264 265 257 246 242 232 234 238 233 230
222 228 247 257 230 214 245 250 254 258 269 277 286 291 289 285 281 285 280 273 262 251 241 227 213 208 208 207 210 217 226 241 247 252 257 256 262 264 264 274 268 252 246 240 236 235 236 233 230
247 245 240 242 243 252 260 260 260 263 273 279 289 288 289 282 281 279 275 276 254 232 206 202 200 197 188 195 196 210 228 240 248 256 259 256 262 262 266 266 257 246 239 240 239 241 245 233 211
236 245 247 253 242 250 249 267 268 262 271 279 276 281 280 288 283 274 268 254 230 202 190 188 186 190 189 187 190 204 215 236 245 255 254 255 255 266 266 253 239 236 231 232 238 238 231 204 191
228 235 241 251 261 248 259 266 268 264 259 271 264 267 278 273 279 264 227 203 184 179 180 179 180 184 183 182 195 215 228 247 267 266 258 244 250 250 241 228 222 229 233 239 231 213 190 193 184
231 223 244 256 254 251 246 269 265 274 273 262 268 271 258 257 251 213 185 167 167 164 161 162 170 178 188 195 192 196 219 244 239 233 243 242 245 225 218 221 229 236 233 215 205 192 202 191 183
237 230 238 240 248 258 249 259 266 261 265 261 261 265 242 235 220 194 175 160 154 152 154 159 169 176 185 193 182 199 226 224 232 245 252 245 236 214 218 227 228 228 203 188 187 195 191 184 185
224 221 230 236 242 242 246 252 258 264 261 265 257 250 197 183 159 154 153 149 147 148 154 159 166 172 182 178 186 204 192 202 240 266 262 249 251 219 210 212 223 210 188 187 186 191 171 171 176
201 190 196 218 222 241 242 247 251 267 240 258 250 241 167 163 153 151 152 153 148 153 158 160 165 170 172 172 180 187 192 220 265 277 275 256 229 202 211 208 213 200 178 182 186 186 180 189 196
195 192 203 214 226 240 223 247 232 242 252 249 250 241 168 166 155 154 154 156 153 156 161 161 168 170 171 171 178 185 208 243 279 283 256 222 197 192 192 192 197 187 174 178 187 182 167 184 172
195 211 210 253 229 279 210 230 274 257 254 245 233 214 188 170 157 155 156 156 157 161 163 164 168 170 169 171 177 188 199 223 251 265 200 176 138 156 170 171 179 164 167 179 187 183 170 164 159
197 196 202 222 233 226 246 230 237 197 229 229 223 201 181 167 157 157 160 159 160 163 161 163 169 168 168 172 172 181 192 229 225 177 192 168 156 148 157 162 160 153 161 176 182 192 178 164 160
199 198 213 211 227 213 229 230 215 243 239 215 194 174 168 167 161 161 161 162 162 164 163 167 167 167 171 170 168 165 162 237 172 160 154 157 147 148 158 159 158 155 156 164 175 170 174 178 169
200 208 197 201 199 255 217 217 6 286 29 220 199 161 167 165 161 162 163 163 165 166 168 171 170 170 172 171 162 150 122 166 173 141 117 122 137 142 156 157 155 150 157 160 163 162 171 165 157